Wetbulb
47.78 43.85 40.95 42.05 44.21 44.45 43.44 41.65 40.98 42.76 46.23 43.68 43.43 41.94 44.06 46.78 44.64 43.37 44.56 45.12 51.14 55.32 58.41 59.53 60.33 60.69 59.64 60.76 60.17 60.80 60.69 61.12 61.01 60.47 58.40 57.77 57.50 57.58 57.66 58.78 60.38 60.55 60.34 59.68
44.69 40.54 44.33 45.54 45.90 44.60 44.65 41.75 42.14 45.10 44.43 44.23 41.07 41.43 44.50 46.42 47.33 44.82 45.21 45.25 45.45 52.48 53.49 57.74 58.32 59.57 59.25 59.71 59.89 60.16 60.62 60.66 60.97 61.67 61.05 58.68 57.74 58.24 59.22 59.70 60.77 60.89 60.35 59.85
40.67 42.60 45.95 44.97 43.69 43.18 42.44 42.58 43.16 43.75 41.54 43.05 39.03 38.19 41.52 46.08 46.53 47.70 47.30 46.27 46.81 47.20 53.51 55.14 57.06 58.58 59.56 58.10 57.73 57.66 60.15 60.43 61.00 61.27 60.58 58.36 58.25 58.26 58.30 59.36 60.67 60.85 60.75 60.16
42.36 44.35 44.31 43.01 42.26 43.67 39.47 45.60 44.44 41.58 40.54 36.30 39.67 31.31 38.37 43.38 45.05 46.81 46.41 44.65 45.43 46.35 50.21 54.91 56.71 57.64 58.83 59.46 59.64 57.65 57.78 59.22 60.18 60.97 60.00 59.73 58.74 57.93 59.34 59.80 61.33 61.06 60.69 60.16
40.88 41.25 41.44 41.08 42.28 45.12 40.58 45.40 42.50 41.67 38.07 35.45 36.51 33.68 36.61 40.99 41.20 44.57 48.37 46.07 45.57 45.94 47.43 50.41 56.00 57.62 58.76 60.11 60.25 60.50 57.56 57.46 58.86 59.26 59.98 59.35 58.60 59.10 59.79 60.66 60.47 61.08 61.01 60.37
42.21 44.63 44.16 43.84 45.04 45.01 43.72 41.75 40.84 40.10 38.78 33.48 36.64 36.36 34.85 39.04 43.14 44.17 46.06 49.48 48.71 46.13 45.13 48.09 53.61 57.17 57.76 59.50 60.28 59.88 59.94 57.42 57.88 58.13 58.84 58.65 58.34 58.63 59.23 59.67 60.00 60.52 60.77 60.49
41.05 41.49 43.04 46.17 41.07 43.59 43.15 40.92 32.55 31.32 31.56 29.27 35.74 34.71 39.22 41.46 43.95 44.48 45.50 45.55 47.70 46.46 45.34 46.63 48.00 51.38 54.78 56.98 59.18 59.90 60.35 60.07 58.12 57.52 58.23 58.51 58.86 59.61 59.81 59.89 60.31 60.08 59.94 58.02
34.05 32.30 40.36 43.90 43.64 39.26 41.08 39.58 29.13 23.13 26.12 26.44 29.68 30.28 35.76 45.20 47.80 45.88 46.79 46.85 44.11 43.67 45.72 45.08 46.31 49.94 53.59 56.21 58.17 58.97 59.27 60.30 60.45 59.35 57.76 58.64 59.30 60.72 60.73 60.66 60.76 60.40 60.31 60.07
34.39 33.82 40.48 42.76 42.96 43.63 39.17 37.66 37.75 28.98 20.34 24.26 28.85 32.67 39.35 41.64 43.13 41.76 41.57 41.01 42.41 42.52 41.83 44.69 44.64 46.88 51.03 53.42 55.78 58.25 59.28 60.22 60.29 61.13 60.96 59.34 59.26 59.84 60.77 60.79 60.96 60.74 60.18 59.24
37.86 32.43 39.00 38.60 43.32 41.69 41.44 42.53 34.96 30.60 21.45 21.28 26.84 28.16 32.06 36.52 40.01 41.54 41.80 42.01 40.34 40.47 40.89 41.49 41.78 42.84 44.75 49.97 52.95 54.96 57.42 59.02 59.55 60.46 61.31 61.13 60.87 60.80 61.08 60.96 60.48 60.52 60.00 57.91
40.25 36.44 34.12 38.73 38.99 38.63 38.65 37.79 36.70 36.35 30.99 25.24 22.83 27.85 36.95 38.73 42.44 40.91 39.27 40.56 40.29 40.39 40.71 41.29 41.84 42.12 42.12 42.11 42.52 45.91 51.25 53.84 55.22 56.55 59.16 59.75 60.17 60.66 60.95 60.88 60.59 60.79 59.54 56.65
40.00 36.42 31.52 36.00 37.18 40.67 41.34 39.37 39.73 33.36 29.97 30.53 28.59 29.06 37.71 38.54 39.55 38.27 38.82 40.21 40.29 41.12 41.57 42.12 42.33 42.14 42.11 42.40 42.36 42.29 42.59 43.97 47.69 50.62 52.86 54.29 55.64 55.22 58.17 60.16 60.82 58.51 56.82 54.39
38.93 33.96 29.09 29.99 35.44 37.79 38.57 39.53 41.02 36.41 32.98 30.54 26.38 28.93 37.76 35.40 37.06 37.98 38.51 39.93 41.21 42.04 41.92 41.70 41.05 41.34 41.47 41.63 41.82 42.09 42.68 43.23 44.45 46.09 46.92 48.07 49.47 51.55 52.72 54.76 53.18 51.53 50.25 49.28
41.53 35.37 33.56 29.95 33.47 36.55 35.83 38.62 40.20 35.12 29.05 29.42 33.28 31.53 32.29 35.71 37.10 37.18 38.32 39.23 39.47 40.93 42.12 41.73 41.44 41.04 41.48 41.84 41.69 41.60 42.10 43.04 44.05 45.31 45.36 45.15 45.90 48.81 50.13 50.51 50.23 48.33 47.41 46.33
39.34 31.20 33.80 33.91 35.85 37.69 36.65 37.01 38.64 36.49 36.59 33.23 36.37 34.81 35.59 36.85 36.81 37.78 39.32 39.83 40.97 42.27 42.47 42.00 41.64 41.16 40.72 41.42 41.53 41.66 41.74 42.74 43.37 43.82 43.97 44.03 43.20 45.29 44.97 44.05 43.40 43.24 42.52 43.05
39.04 32.79 32.55 27.07 34.55 36.46 34.64 37.66 38.77 39.26 39.13 38.23 35.39 35.85 40.33 39.59 40.16 39.06 40.10 41.23 41.20 41.63 42.47 41.91 41.43 40.13 40.59 40.83 41.15 41.38 41.42 41.73 42.26 42.46 42.16 42.51 41.82 39.96 39.12 38.12 37.61 39.13 38.63 38.68
37.60 31.79 29.27 21.69 30.16 31.44 26.46 35.09 37.31 38.68 40.58 39.95 34.89 39.30 40.04 39.33 39.65 40.26 41.11 41.12 41.56 41.37 41.80 40.89 39.18 39.48 39.61 39.83 41.40 40.63 40.82 40.90 40.40 38.47 37.16 37.22 36.84 37.01 36.18 35.10 34.30 34.27 35.28 35.16
36.47 33.10 30.84 27.37 31.81 24.55 32.20 39.61 40.95 39.36 40.59 41.78 40.92 38.67 39.50 40.39 40.98 41.23 41.65 40.96 41.22 41.64 40.81 39.45 39.50 39.52 40.31 40.49 40.96 40.95 39.89 38.38 36.36 35.65 35.40 34.89 34.56 33.81 33.06 32.37 32.35 32.41 33.65 33.53
40.35 33.08 28.47 26.92 27.22 27.19 31.17 32.71 36.73 36.43 36.83 42.20 41.34 41.07 39.28 40.03 39.90 38.88 40.20 40.31 39.94 38.90 38.54 38.54 38.58 39.80 39.55 39.34 38.84 36.77 34.69 34.31 34.50 34.18 33.97 33.63 33.22 29.74 30.97 27.99 28.98 32.52 31.60 31.06
38.25 37.88 31.46 26.15 24.60 20.99 30.03 35.09 41.29 40.26 31.60 41.94 42.00 41.74 40.79 39.45 36.11 38.35 37.61 37.82 37.01 37.12 36.71 36.84 38.27 38.19 37.19 36.55 35.86 33.88 33.15 32.92 32.86 33.24 33.53 33.06 31.76 28.53 27.54 28.47 30.12 30.58 31.13 31.12
32.06 32.31 30.76 28.81 20.54 24.48 31.65 33.81 42.07 29.16 31.83 38.68 41.89 42.50 41.53 39.33 41.38 38.21 36.81 35.85 35.56 34.88 35.28 36.07 35.55 34.34 34.02 33.65 33.10 32.09 31.49 31.01 31.55 31.21 30.19 28.09 27.75 26.50 26.75 25.75 25.13 25.20 28.95 29.87
31.01 29.74 28.83 22.36 14.46 22.98 33.76 36.69 34.80 36.70 34.19 34.86 37.76 41.64 39.91 37.67 35.69 35.84 34.73 33.57 32.94 32.34 32.75 33.24 31.55 30.29 30.13 30.04 31.36 30.02 29.58 29.69 27.28 27.19 26.68 25.21 22.52 26.35 25.28 21.95 21.64 23.56 30.45 30.46
28.32 33.11 30.81 33.06 30.49 33.94 33.68 37.24 39.26 36.12 35.36 35.54 36.52 36.56 37.35 35.21 33.58 33.94 32.37 31.20 30.24 30.15 29.96 29.62 28.34 27.37 26.69 26.34 27.78 27.77 26.85 26.90 25.77 25.28 23.44 21.41 22.74 23.97 22.98 20.06 19.58 21.24 22.54 24.57
30.32 34.34 30.30 30.95 31.88 31.43 34.41 33.33 36.03 36.06 34.02 35.31 35.14 35.60 37.51 33.87 33.97 32.22 30.38 29.01 28.01 27.42 26.57 25.44 25.20 23.33 22.45 22.47 23.45 22.66 24.26 25.22 23.79 22.97 22.54 21.44 20.72 20.67 20.84 23.23 22.34 19.93 19.98 20.17
31.26 32.52 28.12 27.87 29.91 31.28 31.60 33.71 35.69 35.26 35.63 35.38 34.42 34.28 33.54 34.12 32.09 31.04 28.82 27.40 26.81 25.67 24.37 23.70 23.08 21.66 19.75 19.54 18.71 17.69 20.62 19.79 23.24 22.30 21.68 21.22 20.54 18.49 19.74 21.19 20.15 21.80 20.55 22.11
31.50 32.66 31.89 29.40 33.15 33.79 36.36 35.22 34.08 34.01 34.18 33.36 32.52 31.25 30.66 32.76 30.25 29.15 27.37 26.61 25.30 23.46 22.24 21.28 19.70 18.49 15.40 13.93 13.39 13.10 14.08 16.09 19.26 22.09 21.27 20.58 19.51 18.31 19.00 18.29 19.26 28.17 30.01 31.53
MSLP
1018.10 1018.10 1017.88 1018.72 1019.01 1019.09 1019.18 1019.24 1018.86 1018.27 1017.73 1018.09 1018.04 1018.06 1017.59 1016.98 1017.11 1017.20 1017.12 1017.26 1017.47 1017.45 1017.15 1017.68 1018.15 1018.52 1018.57 1019.00 1019.48 1019.89 1020.42 1021.03 1021.57 1021.96 1022.49 1022.98 1023.36 1023.58 1023.62 1023.76 1023.74 1023.99 1024.24 1024.48
1018.29 1017.32 1017.96 1018.96 1019.38 1019.27 1019.12 1019.08 1018.65 1018.19 1017.77 1018.12 1018.11 1017.95 1017.45 1016.91 1016.46 1016.50 1016.55 1016.43 1016.40 1016.80 1017.09 1017.17 1017.40 1017.65 1017.77 1018.29 1018.60 1019.34 1019.65 1020.31 1020.94 1021.25 1021.60 1022.16 1022.67 1022.98 1022.99 1023.47 1023.47 1023.54 1023.81 1024.15
1016.58 1016.08 1017.78 1018.52 1019.06 1019.26 1019.02 1018.95 1018.60 1018.51 1018.38 1018.29 1018.63 1018.23 1017.37 1016.33 1015.74 1015.46 1015.44 1015.44 1015.33 1015.82 1016.21 1016.45 1016.65 1016.86 1017.31 1017.72 1018.03 1018.45 1018.97 1019.58 1020.11 1020.48 1021.08 1021.67 1022.21 1022.53 1022.85 1022.93 1023.04 1023.02 1023.29 1023.54
1016.57 1016.32 1016.56 1017.78 1018.03 1018.59 1018.69 1018.69 1018.87 1018.81 1019.23 1019.33 1019.14 1018.26 1017.05 1015.96 1015.33 1015.03 1014.78 1014.83 1014.78 1014.93 1015.22 1015.44 1015.63 1016.25 1016.51 1016.73 1017.16 1017.70 1018.30 1018.91 1019.56 1020.02 1020.43 1020.60 1020.91 1021.24 1021.37 1021.78 1022.10 1022.27 1022.43 1022.77
1014.44 1014.97 1015.99 1016.78 1016.58 1017.84 1018.44 1018.61 1019.18 1019.56 1019.95 1019.88 1019.54 1019.10 1016.51 1015.68 1015.30 1014.39 1014.07 1014.04 1013.87 1014.00 1014.34 1014.73 1015.06 1015.02 1015.13 1015.96 1016.38 1016.80 1017.35 1017.91 1018.52 1019.10 1019.57 1020.13 1020.48 1020.58 1020.76 1021.23 1021.57 1021.81 1021.99 1022.19
1014.70 1014.77 1015.62 1015.60 1016.69 1017.25 1018.42 1018.93 1019.96 1020.44 1020.67 1020.12 1019.38 1019.06 1016.40 1015.34 1014.33 1013.46 1013.08 1012.89 1012.99 1013.29 1013.60 1013.76 1013.92 1014.23 1014.74 1015.27 1015.85 1016.43 1016.87 1017.18 1017.76 1018.36 1018.84 1019.30 1019.79 1020.17 1020.53 1020.80 1021.07 1021.27 1021.53 1021.68
1015.20 1015.44 1015.30 1015.44 1016.42 1017.35 1017.78 1018.90 1020.61 1021.57 1021.39 1019.49 1018.84 1018.65 1015.64 1014.31 1013.11 1012.64 1012.54 1012.48 1012.30 1012.62 1013.01 1013.21 1013.65 1014.06 1014.41 1014.83 1015.16 1015.67 1016.23 1016.74 1017.09 1017.53 1017.81 1018.26 1018.75 1019.51 1019.80 1020.07 1020.31 1020.71 1020.90 1021.05
1013.79 1015.51 1014.47 1014.12 1014.65 1015.41 1016.16 1016.94 1018.11 1019.83 1020.61 1019.96 1019.35 1017.30 1014.51 1012.69 1012.04 1012.02 1011.91 1011.87 1012.35 1012.47 1012.50 1012.77 1012.90 1013.21 1013.69 1014.16 1014.61 1015.12 1015.70 1016.15 1016.55 1016.92 1017.10 1017.54 1017.98 1018.33 1018.61 1019.04 1019.34 1019.69 1019.92 1020.06
1012.41 1014.02 1014.07 1013.86 1014.40 1015.14 1016.13 1016.39 1017.52 1019.12 1020.47 1020.01 1018.34 1016.24 1014.27 1012.57 1012.09 1011.73 1011.71 1011.77 1011.97 1012.12 1012.28 1012.64 1012.72 1013.08 1013.57 1013.89 1014.10 1014.31 1014.64 1014.98 1015.37 1015.47 1015.99 1016.52 1016.94 1017.32 1017.58 1017.95 1018.33 1018.49 1018.69 1018.96
1009.89 1013.24 1014.17 1014.39 1014.52 1015.23 1015.07 1015.78 1017.36 1018.09 1019.40 1019.34 1017.39 1015.81 1013.43 1012.62 1011.88 1011.85 1011.87 1011.73 1012.06 1012.35 1012.78 1013.02 1013.20 1013.40 1013.65 1013.88 1014.02 1014.19 1014.37 1014.44 1014.71 1015.07 1015.36 1015.57 1015.82 1016.13 1016.50 1017.09 1017.19 1017.33 1017.42 1017.74
1008.93 1010.84 1014.60 1014.70 1014.06 1013.71 1014.88 1014.69 1015.35 1016.23 1017.29 1017.33 1016.80 1014.42 1012.05 1011.51 1011.10 1011.61 1011.92 1012.08 1012.37 1012.81 1013.09 1013.20 1013.35 1013.59 1013.83 1014.00 1014.27 1014.45 1014.58 1014.59 1014.70 1014.87 1014.99 1015.27 1015.54 1015.74 1016.03 1016.11 1016.22 1016.49 1016.97 1017.32
1008.57 1010.38 1012.98 1013.59 1014.08 1013.52 1013.62 1013.90 1014.46 1015.34 1015.98 1016.26 1015.65 1013.52 1011.50 1010.98 1010.99 1011.53 1012.37 1012.58 1012.56 1012.70 1012.94 1013.29 1013.42 1013.70 1014.05 1014.40 1014.54 1014.67 1014.64 1014.81 1015.08 1015.10 1015.16 1015.12 1015.21 1015.49 1015.74 1015.78 1015.97 1016.24 1016.61 1017.03
1007.66 1009.86 1012.46 1014.16 1014.66 1014.17 1013.42 1013.20 1013.68 1014.01 1014.73 1014.80 1015.02 1013.21 1011.83 1011.45 1011.49 1011.99 1012.14 1012.47 1012.59 1012.80 1013.08 1013.33 1013.60 1013.99 1014.31 1014.54 1014.61 1014.68 1014.56 1014.49 1014.63 1014.76 1015.08 1015.28 1015.48 1015.67 1015.82 1015.89 1016.03 1016.27 1016.53 1016.95
1006.59 1008.67 1008.70 1009.03 1008.20 1010.72 1012.23 1012.12 1012.95 1013.49 1014.01 1013.52 1012.37 1012.41 1012.27 1011.96 1011.69 1012.01 1012.10 1012.23 1012.38 1012.67 1012.74 1013.12 1013.53 1013.75 1013.92 1014.17 1014.42 1014.53 1014.56 1014.67 1014.83 1014.95 1015.15 1015.27 1015.49 1015.59 1015.73 1015.97 1016.17 1016.63 1017.00 1017.23
1005.75 1007.68 1008.70 1008.94 1009.71 1010.37 1011.19 1011.76 1012.53 1012.59 1012.19 1012.15 1010.41 1011.59 1011.25 1011.11 1011.04 1011.28 1011.39 1011.75 1012.15 1012.36 1012.51 1012.68 1013.08 1013.45 1013.60 1013.90 1014.09 1014.17 1014.36 1014.53 1014.67 1014.99 1015.25 1015.53 1015.75 1015.81 1015.94 1016.07 1016.26 1016.61 1017.31 1017.57
1006.32 1007.56 1008.48 1009.99 1010.22 1010.32 1010.52 1010.85 1010.84 1010.19 1009.94 1009.76 1010.36 1010.46 1009.99 1010.47 1010.60 1010.81 1011.17 1011.45 1011.83 1012.06 1012.26 1012.52 1012.83 1013.07 1013.56 1013.74 1013.96 1014.12 1014.25 1014.53 1014.85 1015.09 1015.26 1015.40 1015.68 1016.04 1016.23 1016.40 1016.61 1016.84 1017.16 1017.47
1005.66 1006.81 1008.49 1010.71 1010.86 1011.20 1011.64 1008.30 1007.89 1007.70 1009.18 1008.13 1009.35 1008.66 1009.83 1010.04 1010.23 1010.46 1010.86 1011.03 1011.38 1011.75 1012.16 1012.55 1012.91 1013.36 1013.68 1013.89 1013.88 1014.16 1014.42 1014.69 1015.07 1015.52 1015.81 1016.07 1016.25 1016.29 1016.47 1016.75 1017.21 1017.60 1017.88 1018.04
1004.37 1006.46 1008.46 1010.97 1011.09 1011.05 1007.29 1006.86 1006.88 1007.02 1007.17 1006.95 1007.51 1008.45 1009.28 1009.36 1009.37 1009.80 1010.14 1010.54 1011.28 1011.83 1012.37 1012.96 1013.46 1013.81 1013.98 1013.99 1014.05 1014.33 1014.65 1015.13 1015.51 1015.84 1016.21 1016.57 1016.99 1017.43 1017.64 1017.71 1017.67 1017.89 1018.24 1018.45
1003.90 1005.81 1008.90 1010.58 1010.36 1009.24 1007.45 1006.36 1005.88 1006.55 1005.48 1006.18 1006.65 1008.01 1008.92 1009.25 1009.71 1010.33 1010.37 1010.70 1011.50 1012.37 1013.22 1013.76 1014.03 1014.23 1014.49 1014.73 1014.91 1015.17 1015.66 1015.97 1016.14 1016.31 1016.41 1016.58 1016.94 1017.38 1017.68 1017.85 1018.04 1018.13 1018.22 1018.57
1005.04 1005.02 1006.65 1009.73 1010.17 1008.60 1005.10 1004.48 1004.79 1006.90 1006.05 1004.60 1005.46 1006.70 1008.21 1009.34 1009.83 1010.44 1011.38 1011.58 1012.52 1013.18 1013.84 1014.36 1014.77 1015.09 1015.31 1015.62 1015.65 1015.90 1016.46 1016.72 1016.93 1016.86 1016.94 1017.11 1017.28 1017.66 1017.84 1018.22 1018.28 1018.31 1018.12 1018.46
1005.67 1006.46 1007.04 1008.10 1008.59 1006.51 1004.41 1003.93 1005.20 1006.93 1002.60 1002.69 1003.57 1004.84 1006.79 1008.19 1008.11 1010.07 1011.34 1012.33 1013.24 1014.11 1014.60 1015.11 1015.77 1016.30 1016.52 1016.51 1016.53 1017.01 1017.28 1017.52 1017.57 1017.38 1017.40 1017.67 1017.85 1018.14 1018.37 1018.49 1018.61 1018.72 1018.58 1018.85
1004.14 1005.23 1006.67 1007.80 1007.55 1005.47 1002.86 1003.96 1002.91 1001.96 1002.40 1003.11 1003.56 1004.16 1005.93 1007.35 1008.89 1010.55 1011.78 1013.19 1014.31 1014.98 1015.39 1015.98 1016.65 1017.43 1017.73 1017.63 1017.53 1017.92 1018.13 1018.20 1017.96 1017.93 1018.13 1018.05 1018.30 1018.27 1018.46 1018.67 1018.81 1018.78 1018.87 1019.19
1003.46 1001.86 1003.03 1003.96 1002.44 1002.34 1002.21 1001.82 1001.63 1002.30 1003.08 1003.52 1003.81 1004.53 1005.55 1007.53 1009.44 1010.96 1012.75 1014.03 1014.81 1015.44 1016.17 1016.93 1017.35 1018.07 1018.64 1018.74 1018.53 1018.56 1018.86 1018.45 1018.23 1018.31 1018.79 1019.15 1019.02 1018.91 1018.99 1019.53 1019.55 1019.53 1019.27 1019.17
1002.69 1002.46 1003.13 1003.84 1002.91 1001.99 1001.91 1002.38 1002.41 1002.88 1003.13 1003.70 1004.08 1004.93 1006.15 1008.12 1010.11 1011.71 1013.18 1014.45 1015.37 1016.17 1016.95 1017.51 1018.07 1018.79 1019.33 1019.43 1019.32 1019.30 1019.13 1018.98 1019.10 1019.44 1019.72 1019.97 1019.98 1020.04 1019.78 1019.91 1019.97 1020.06 1019.80 1019.67
1002.42 1003.03 1003.15 1003.31 1002.56 1002.35 1002.42 1002.42 1002.64 1003.48 1004.08 1004.43 1005.02 1005.70 1007.08 1008.60 1010.80 1011.99 1013.65 1014.79 1015.80 1016.73 1017.41 1017.87 1018.40 1019.13 1019.84 1019.92 1020.04 1020.00 1019.91 1019.69 1019.62 1019.78 1020.06 1020.23 1020.35 1020.49 1020.35 1020.00 1019.96 1020.05 1020.04 1020.19
1003.83 1003.31 1003.32 1002.65 1002.29 1002.12 1002.23 1002.15 1002.91 1004.04 1004.75 1005.25 1006.12 1007.72 1008.71 1009.43 1010.84 1012.47 1014.06 1015.11 1016.14 1017.45 1018.18 1018.69 1019.18 1019.49 1020.54 1020.92 1020.93 1021.01 1020.70 1019.84 1020.02 1020.30 1020.60 1020.31 1020.54 1020.75 1020.46 1020.23 1020.03 1019.65 1019.70 1020.04
Wind_Speed
4 7 15 11 10 5 8 6 10 7 7 6 16 6 12 11 6 7 8 8 12 15 16 15 14 12 9 14 15 16 15 15 9 6 5 6 7 6 4 5 8 9 8 7
4 18 12 8 6 7 6 8 10 3 3 6 5 10 9 10 9 10 12 11 10 10 8 15 14 14 12 15 16 15 17 15 14 9 6 4 4 4 6 4 7 8 9 9
21 15 12 12 9 14 10 7 8 5 2 3 2 7 7 10 8 9 13 9 9 13 15 14 15 17 13 13 16 16 17 16 15 15 6 3 3 2 4 5 6 8 11 9
17 6 23 16 18 13 15 6 3 7 8 5 5 7 5 6 10 11 10 9 11 10 10 15 17 15 16 15 14 15 15 16 15 15 12 16 12 12 10 10 7 8 10 10
18 25 22 22 22 17 6 8 5 3 4 1 4 1 7 6 6 10 15 12 13 13 12 12 16 20 18 16 14 14 15 16 16 16 15 12 13 10 8 8 9 10 8 10
2 10 13 18 11 12 8 7 6 4 2 7 8 6 6 6 10 7 7 14 15 12 12 11 14 15 14 14 13 11 13 15 15 16 17 16 16 12 8 9 9 8 8 8
5 6 9 18 9 8 9 13 2 4 4 10 6 8 13 7 9 7 6 7 10 9 9 13 11 10 10 13 15 13 13 15 14 16 17 17 16 15 13 13 11 10 8 6
14 9 15 10 22 13 22 15 7 8 7 5 1 10 8 18 18 8 9 8 4 8 7 9 11 10 12 14 14 13 12 14 11 14 16 16 15 11 12 12 10 9 10 10
14 6 4 4 7 14 9 15 7 6 2 3 6 6 10 6 9 6 8 5 7 6 3 1 7 8 8 9 13 15 15 16 14 17 15 15 15 16 13 15 12 11 12 10
7 8 2 2 7 1 12 12 7 1 6 5 5 5 7 7 11 8 7 8 2 2 5 4 3 3 3 6 6 7 10 14 13 13 13 13 15 16 16 11 15 15 14 13
13 8 3 6 10 19 8 13 5 6 5 6 3 8 8 11 16 9 5 7 8 7 5 3 1 2 2 1 1 4 6 7 8 9 11 11 11 12 13 15 14 15 12 12
5 7 11 13 4 5 7 10 11 8 9 4 3 7 3 7 8 10 8 7 7 8 7 4 1 2 2 3 4 5 4 4 5 4 5 7 7 6 10 13 13 8 10 9
10 5 11 3 5 5 19 12 19 3 4 11 6 7 0 3 9 7 12 9 8 7 6 4 2 4 4 5 5 5 5 7 6 5 6 6 5 5 6 5 3 5 6 6
9 8 16 22 32 10 19 23 20 4 5 4 16 4 4 7 12 9 8 8 8 7 7 4 2 4 5 5 6 5 6 5 5 4 4 5 4 4 4 3 5 5 4 6
8 8 8 4 7 16 22 19 21 19 14 12 15 13 16 14 11 11 10 8 7 7 6 6 4 3 4 5 5 5 4 5 4 4 4 4 2 2 2 3 2 4 3 1
5 9 6 2 12 18 24 26 26 29 27 23 5 13 7 8 7 8 9 9 7 7 7 5 4 2 3 4 4 4 4 4 3 4 4 3 4 3 2 1 2 4 5 5
15 8 6 3 7 11 5 33 33 29 23 30 20 17 9 8 8 10 11 9 9 7 6 4 2 2 2 3 3 3 4 3 4 3 2 2 3 4 4 3 3 2 3 2
17 8 4 4 11 10 9 21 28 29 29 29 20 8 10 10 8 8 7 9 8 6 5 4 3 2 4 3 4 3 4 4 4 2 0 0 0 2 1 1 3 2 2 4
11 9 7 7 10 4 7 9 30 25 30 26 28 16 8 5 6 3 3 4 6 6 5 3 2 2 5 6 5 6 7 5 4 2 1 2 3 3 3 3 3 2 2 1
5 6 9 5 8 14 4 8 20 7 20 25 22 21 17 9 9 6 7 6 7 8 5 5 5 6 7 6 6 7 6 5 5 3 2 2 4 4 4 4 4 2 3 2
10 6 11 9 3 11 8 6 22 15 15 15 27 27 22 17 11 8 9 6 7 6 7 7 8 7 6 5 6 8 6 7 5 4 4 4 3 2 1 1 2 1 2 2
13 13 8 4 3 14 9 18 27 4 4 6 9 18 13 8 10 13 10 10 8 8 8 8 9 8 7 7 6 7 7 5 3 4 5 6 4 3 2 4 1 2 3 3
3 11 12 15 9 5 6 10 10 4 7 7 8 7 12 14 8 12 11 9 8 8 7 6 9 9 8 8 7 7 5 5 5 7 6 5 5 5 3 3 2 2 2 2
3 5 6 5 6 5 9 2 5 4 4 6 5 10 16 12 15 13 12 10 8 7 8 6 9 9 8 6 7 5 5 5 6 6 6 5 4 3 4 3 2 2 1 1
5 7 7 1 2 5 2 5 8 6 7 9 8 6 10 19 13 14 12 11 9 8 6 7 9 8 7 5 6 6 5 2 6 5 4 4 3 3 3 2 1 1 2 2
4 3 8 6 8 4 13 8 8 9 7 9 10 7 6 13 16 15 11 10 10 9 7 8 7 9 6 5 5 6 6 3 4 6 4 3 3 3 2 2 2 6 6 8
Wind_Direction
222 179 202 205 202 189 160 195 203 232 232 160 223 216 237 262 214 234 233 214 195 200 199 196 201 198 174 181 174 183 181 198 188 183 180 191 196 199 196 198 186 189 192 192
148 217 192 151 211 233 220 198 221 270 152 170 237 245 234 238 233 207 216 227 198 203 190 196 191 191 183 188 187 183 187 188 200 198 194 180 167 193 201 202 210 193 188 195
195 203 154 189 191 210 231 236 204 206 203 316 359 278 232 240 221 221 221 216 213 188 197 200 190 193 193 189 194 189 188 188 192 198 182 140 141 165 187 204 208 200 194 193
217 183 178 192 204 190 205 193 190 148 147 223 183 277 288 236 242 233 229 212 215 211 198 198 194 194 198 203 196 195 189 189 193 189 192 200 202 201 209 209 202 197 190 194
199 179 183 197 200 188 208 144 123 106 109 17 244 251 264 243 250 241 230 223 216 211 203 193 198 200 203 198 199 194 191 192 192 191 195 199 209 211 201 201 197 201 203 203
126 183 176 197 186 177 152 94 60 56 88 242 205 197 243 218 237 240 221 229 220 211 212 214 201 203 198 197 197 190 191 197 192 193 199 202 210 208 198 195 201 204 206 209
145 195 172 174 138 150 143 156 144 208 216 239 221 202 245 234 232 208 217 231 220 215 213 216 200 190 186 187 192 192 195 202 194 197 202 203 207 206 205 205 204 199 202 206
154 186 178 174 189 173 180 172 153 178 204 221 311 231 252 225 239 224 227 238 197 195 219 224 219 194 189 192 190 187 189 205 195 202 208 208 207 206 210 210 206 209 210 212
168 200 150 186 134 158 177 197 144 105 39 95 211 276 307 261 231 215 216 201 225 238 215 204 225 204 200 188 192 193 197 208 198 203 205 206 209 211 210 213 204 205 206 204
163 111 187 140 107 57 183 160 165 122 154 238 254 248 229 219 239 224 223 215 267 188 95 72 55 111 176 211 219 211 211 213 213 211 210 208 209 212 215 205 209 207 205 194
148 117 190 165 201 184 164 191 187 127 159 174 178 254 218 204 210 199 157 139 132 113 110 92 43 6 354 356 246 236 227 217 210 204 213 220 220 215 213 215 215 215 205 192
181 123 160 189 6 268 194 189 188 186 211 215 178 271 290 210 155 136 144 139 142 141 145 153 218 332 344 307 285 262 260 250 260 261 244 229 226 216 217 226 228 204 196 196
172 143 134 121 3 336 203 188 199 95 83 208 142 245 320 127 115 156 145 154 152 156 177 205 216 244 256 263 261 261 244 236 231 215 217 240 247 235 236 231 178 173 161 172
118 167 180 190 204 126 189 198 199 150 188 166 225 168 221 182 150 166 161 169 179 186 193 199 212 208 217 230 233 234 246 242 245 235 231 236 238 235 227 210 162 164 177 170
132 161 172 112 151 171 180 179 188 210 201 200 221 204 201 192 173 179 182 182 174 191 184 177 182 219 234 234 239 233 226 221 208 202 203 239 270 223 191 181 160 117 153 166
221 164 121 82 172 166 183 194 195 211 209 231 118 225 194 190 172 165 180 176 184 198 193 161 165 191 298 280 264 240 233 224 180 194 211 201 169 155 180 180 177 165 179 185
180 133 118 199 150 109 187 200 197 211 204 217 215 213 187 201 176 180 192 176 176 184 169 180 104 66 354 309 246 235 221 165 162 172 193 199 180 185 187 169 167 213 218 184
160 122 93 143 125 187 235 186 209 209 208 214 219 166 180 185 187 176 179 163 181 182 165 126 85 25 357 1 35 60 65 82 105 100 140 109 244 299 321 209 213 212 197 225
173 127 115 159 195 285 262 204 193 189 222 214 216 193 186 185 144 220 173 135 137 124 110 107 55 47 57 40 46 79 62 65 61 35 295 217 193 188 192 201 218 214 184 220
77 157 118 144 156 214 173 188 189 149 257 213 213 207 201 162 221 197 159 124 109 98 95 85 69 64 57 25 57 79 70 59 37 357 310 230 185 181 185 191 182 165 144 161
154 153 174 167 186 275 233 161 134 159 246 173 193 203 197 200 213 154 134 98 100 108 95 81 67 61 33 20 80 75 65 43 359 23 48 46 39 55 30 66 35 91 92 96
165 154 169 108 171 253 174 143 175 168 127 185 184 195 178 140 128 140 123 123 122 111 88 85 83 59 30 23 71 68 52 359 26 55 51 46 36 43 95 122 107 106 131 133
191 189 169 194 186 197 199 175 194 147 153 191 151 154 134 131 141 136 134 127 112 104 96 88 99 85 48 31 34 63 2 13 51 55 45 35 31 32 39 89 114 87 115 137
259 168 152 116 225 193 143 118 136 160 142 133 122 127 139 130 141 128 124 121 113 105 110 113 104 92 76 46 50 46 14 31 59 65 44 27 48 33 28 32 28 47 54 68
191 134 151 245 337 81 314 204 157 131 116 100 68 101 122 129 128 130 129 126 121 118 116 109 108 97 83 54 44 18 4 24 91 92 84 62 56 36 26 38 102 69 282 178
346 189 185 207 183 160 194 194 132 132 153 141 124 98 74 132 131 131 125 122 124 123 118 103 95 105 91 76 61 16 352 47 99 75 45 64 69 14 51 69 1 11 15 342